www.pogodaiklimat.ru

Погода и климат >> Архив погоды >> Япония >> Овасе


ПОГОДА в Овасе

  • Прогноз погоды в Овасе
  • Монитор погоды в Овасе

АРХИВ ПОГОДЫ в Овасе

Время (UTC), дата Ветер
(напр.,м/с)
 
Видим.   Явления Облачность Т
(С)
Тd
(С)
f
(%)
Тe
(С)
Тes
(С)
Комфортность P
(гПа)
Po
(гПа)
Тmin
(С)
Tmax
(С)
R
(мм)
R24
(мм)
S
(см)
16 16.08 ЮЗ 2 18 км н/о +26.4 +21.6 75 +34 +34 очень
душно
1001.8 999.9
17 16.08 З 2 15 км н/о +25.1 +21.8 82 +32 +32 очень
душно
1002.2 1000.3
18 16.08 СЗ 1 14 км н/о +24.7 +22.0 85 +32 +32 очень
душно
1002.6 1000.7
19 16.08 С 1 12 км н/о +24.2 +22.3 89 +31 +31 очень
душно
1002.6 1000.7
20 16.08 С 1 10 км н/о +24.0 +22.3 90 +31 +31 очень
душно
1003.4 1001.4
21 16.08 Ю 1 11 км н/о +24.0 +22.3 90 +31 +31 очень
душно
1003.7 1001.7
22 16.08 В 2 13 км н/о +25.4 +22.1 82 +33 +33 очень
душно
1003.8 1001.9
23 16.08 ЮВ 1 18 км н/о +27.6 +21.6 70 +35 +35 очень
душно
1003.6 1001.7
00 17.08 В 3 20 км н/о +29.3 +22.8 68 +39 +39 очень
душно
1003.9 1002.0 +23.6
01 17.08 В 3 16 км н/о +30.2 +22.9 65 +40 +40 очень
душно
1003.8 1001.9
02 17.08 СВ 4 18 км н/о +30.4 +22.8 64 +40 +40 очень
душно
1003.8 1001.9
04 17.08 СВ 4 20 км н/о +33.0 +22.5 54 +42 +42 опасность
перегрева
1003.0 1001.1
05 17.08 В 5 19 км н/о +33.5 +23.2 55 +44 +44 опасность
перегрева
1002.9 1001.0
06 17.08 В 5 16 км н/о +32.6 +23.3 58 +43 +43 опасность
перегрева
1002.6 1000.7
07 17.08 СВ 4 20 км н/о +32.2 +21.4 53 +40 +40 очень
душно
1002.9 1001.0
08 17.08 ЮВ 2 14 км н/о +31.0 +23.9 66 +43 +43 опасность
перегрева
1003.1 1001.2
09 17.08 З 2 16 км н/о +29.9 +23.8 70 +41 +41 опасность
перегрева
1003.4 1001.5
10 17.08 З 3 15 км н/о +28.6 +23.7 75 +39 +39 очень
душно
1003.9 1002.0
13 17.08 З 2 13 км н/о +26.8 +23.1 80 +36 +36 очень
душно
1004.9 1003.0
14 17.08 З 1 13 км н/о +26.6 +23.1 81 +36 +36 очень
душно
1005.0 1003.1
15 17.08 З 2 13 км н/о +26.0 +22.9 83 +35 +35 очень
душно
1005.1 1003.2
16 17.08 З 1 12 км н/о +25.6 +22.7 84 +34 +34 очень
душно
1005.1 1003.2
09 19.08 В 1 1900 м дождь н/о +26.2 +25.9 98 +39 +39 очень
душно
1011.2 1009.2
10 19.08 ЮВ 1 5000 м слаб. дождь н/о +25.7 +25.2 97 +37 +37 очень
душно
1010.9 1008.9
11 19.08 З 2 5000 м в посл. час дождь н/о +25.8 +25.5 98 +38 +38 очень
душно
1011.5 1009.5
13 19.08 З 2 10 км н/о +25.3 +24.6 96 +36 +36 очень
душно
1011.3 1009.3
14 19.08 З 2 10 км н/о +25.0 +24.5 97 +35 +35 очень
душно
1011.4 1009.4
15 19.08 З 2 14 км н/о +24.6 +24.1 97 +34 +34 очень
душно
1011.3 1009.3
16 19.08 З 2 12 км н/о +24.3 +24.0 98 +33 +33 очень
душно
1011.0 1009.0
17 19.08 З 1 15 км н/о +24.2 +23.9 98 +33 +33 очень
душно
1011.0 1009.0
18 19.08 З 1 7000 м слаб. дождь н/о +24.4 +24.1 98 +34 +34 очень
душно
1011.3 1009.3 0.0
19 19.08 СЗ 1 15 км в посл. час дождь н/о +24.6 +24.1 97 +34 +34 очень
душно
1011.4 1009.4
20 19.08 ЮЗ 1 12 км в посл. час дождь н/о +24.6 +24.4 99 +34 +34 очень
душно
1011.2 1009.2
22 19.08 СВ 1 20 км н/о +25.7 +23.9 90 +35 +35 очень
душно
1011.3 1009.3
23 19.08 В 1 20 км н/о +27.5 +25.0 86 +39 +39 очень
душно
1011.6 1009.7
00 20.08 В 4 20 км {дождь} н/о +28.6 +24.8 80 +41 +41 опасность
перегрева
1010.7 1008.8 +24.1 0.0
01 20.08 В 5 20 км н/о +29.3 +25.1 78 +42 +42 опасность
перегрева
1011.0 1009.1
02 20.08 В 3 17 км н/о +29.1 +25.3 80 +42 +42 опасность
перегрева
1010.9 1009.0
03 20.08 СВ 4 16 км н/о +28.6 +25.6 84 +42 +42 опасность
перегрева
1010.5 1008.6
04 20.08 В 3 18 км н/о +30.0 +25.7 78 +45 +45 опасность
перегрева
1010.1 1008.2
05 20.08 В 4 20 км н/о +30.4 +26.1 78 +46 +46 опасность
перегрева
1009.6 1007.7
06 20.08 В 3 17 км н/о +30.0 +26.2 80 +45 +45 опасность
перегрева
1009.4 1007.5
07 20.08 В 2 20 км н/о +29.8 +25.8 79 +44 +44 опасность
перегрева
1009.5 1007.6
08 20.08 В 2 20 км н/о +29.6 +25.8 80 +44 +44 опасность
перегрева
1009.4 1007.5
09 20.08 В 2 19 км н/о +29.2 +26.0 83 +44 +44 опасность
перегрева
1009.3 1007.4
10 20.08 ЮЗ 1 16 км н/о +28.6 +26.6 89 +44 +44 опасность
перегрева
1009.8 1007.9
11 20.08 З 1 16 км н/о +28.1 +26.3 90 +43 +43 опасность
перегрева
1010.0 1008.1
12 20.08 ЮЗ 2 17 км н/о +27.5 +25.9 91 +41 +41 опасность
перегрева
1010.2 1008.3 +30.9
13 20.08 З 3 17 км н/о +27.4 +25.8 91 +41 +41 опасность
перегрева
1009.9 1008.0
14 20.08 З 2 17 км н/о +26.8 +25.4 92 +39 +39 очень
душно
1010.0 1008.1
15 20.08 З 1 17 км н/о +26.9 +25.7 93 +40 +40 очень
душно
1009.8 1007.9
16 20.08 З 2 18 км н/о +26.4 +25.2 93 +38 +38 очень
душно
1009.7 1007.8
17 20.08 ЮЗ 1 20 км н/о +26.0 +24.6 92 +37 +37 очень
душно
1009.3 1007.4
20 20.08 З 2 20 км н/о +25.4 +24.2 93 +35 +35 очень
душно
1009.8 1007.8
21 20.08 З 2 20 км н/о +25.9 +24.1 90 +36 +36 очень
душно
1010.2 1008.2
22 20.08 З 1 20 км н/о +28.8 +24.4 77 +40 +40 очень
душно
1010.1 1008.2
23 20.08 В 1 20 км н/о +30.1 +24.3 71 +42 +42 опасность
перегрева
1010.2 1008.3
00 21.08 СВ 5 20 км н/о +30.7 +26.0 76 +46 +46 опасность
перегрева
1010.3 1008.4 +25.3
01 21.08 В 5 19 км н/о +31.2 +26.7 77 +48 +48 опасность
перегрева
1010.3 1008.4
02 21.08 СВ 6 20 км н/о +31.3 +26.6 76 +48 +48 опасность
перегрева
1010.0 1008.1
03 21.08 В 5 20 км н/о +31.3 +25.4 71 +46 +46 опасность
перегрева
1009.5 1007.6
05 21.08 В 5 19 км н/о +32.2 +26.0 70 +48 +48 опасность
перегрева
1008.5 1006.6
06 21.08 В 4 20 км н/о +30.8 +25.9 75 +46 +46 опасность
перегрева
1008.3 1006.4
07 21.08 В 3 20 км н/о +31.0 +25.8 74 +46 +46 опасность
перегрева
1008.3 1006.4
09 21.08 ЮВ 1 19 км н/о +29.8 +26.2 81 +45 +45 опасность
перегрева
1008.6 1006.7
10 21.08 ЮЗ 2 19 км н/о +29.6 +26.8 85 +46 +46 опасность
перегрева
1008.9 1007.0
11 21.08 З 2 20 км н/о +29.1 +25.9 83 +44 +44 опасность
перегрева
1009.5 1007.6
12 21.08 З 2 20 км н/о +28.6 +25.0 81 +41 +41 опасность
перегрева
1010.0 1008.1 +33.5
13 21.08 З 2 20 км н/о +27.8 +23.8 79 +38 +38 очень
душно
1010.0 1008.1
16 21.08 З 2 20 км н/о +26.5 +22.8 80 +35 +35 очень
душно
1009.2 1007.3
17 21.08 ЮЗ 2 20 км н/о +26.4 +22.3 78 +34 +34 очень
душно
1009.1 1007.2
18 21.08 З 3 20 км н/о +26.2 +22.1 78 +34 +34 очень
душно
1009.4 1007.5
19 21.08 З 2 20 км н/о +25.4 +22.1 82 +33 +33 очень
душно
1009.4 1007.4
20 21.08 З 2 20 км н/о +25.1 +22.0 83 +32 +32 очень
душно
1009.5 1007.5
21 21.08 З 2 10 км н/о +25.3 +22.2 83 +33 +33 очень
душно
1009.7 1007.7
22 21.08 ЮЗ 1 20 км н/о +27.5 +22.5 74 +36 +36 очень
душно
1010.1 1008.2
23 21.08 С 1 20 км н/о +29.9 +21.6 61 +38 +38 очень
душно
1010.3 1008.4
00 22.08 В 2 20 км н/о +29.9 +24.1 71 +41 +41 опасность
перегрева
1010.6 1008.7 +24.7
01 22.08 В 5 16 км н/о +31.2 +26.2 75 +47 +47 опасность
перегрева
1010.4 1008.5
02 22.08 В 5 20 км н/о +31.2 +25.3 71 +45 +45 опасность
перегрева
1010.0 1008.1
03 22.08 СВ 6 20 км н/о +30.9 +24.8 70 +44 +44 опасность
перегрева
1009.4 1007.5
04 22.08 В 4 20 км н/о +32.2 +23.7 61 +44 +44 опасность
перегрева
1009.0 1007.1
05 22.08 В 4 20 км н/о +31.7 +23.3 61 +42 +42 опасность
перегрева
1008.6 1006.7
06 22.08 В 4 20 км н/о +32.6 +23.5 59 +44 +44 опасность
перегрева
1008.1 1006.2
07 22.08 В 3 20 км н/о +31.7 +25.3 69 +46 +46 опасность
перегрева
1008.2 1006.3
08 22.08 В 2 20 км н/о +30.9 +24.8 70 +44 +44 опасность
перегрева
1008.2 1006.3
09 22.08 В 3 20 км н/о +30.2 +25.3 75 +44 +44 опасность
перегрева
1007.9 1006.0
11 22.08 З 3 20 км н/о +28.7 +21.2 64 +36 +36 очень
душно
1008.5 1006.6
12 22.08 ЮВ 1 20 км н/о +28.8 +20.8 62 +36 +36 очень
душно
1008.7 1006.8 +33.9
13 22.08 Ю 1 20 км н/о +28.8 +21.3 64 +36 +36 очень
душно
1008.7 1006.8
14 22.08 ЮЗ 2 20 км н/о +28.5 +22.0 68 +37 +37 очень
душно
1008.4 1006.5
15 22.08 ЮЗ 2 20 км н/о +28.2 +22.4 71 +37 +37 очень
душно
1008.0 1006.1
16 22.08 В 1 20 км слаб. дождь н/о +28.1 +22.8 73 +37 +37 очень
душно
1007.4 1005.5
17 22.08 ЮВ 1 20 км слаб. дождь н/о +27.8 +23.4 77 +38 +38 очень
душно
1007.2 1005.3
18 22.08 СЗ 2 20 км слаб. дождь н/о +25.8 +24.8 94 +37 +37 очень
душно
1007.3 1005.4 0.5
19 22.08 СВ 1 20 км слаб. дождь н/о +25.4 +24.9 97 +36 +36 очень
душно
1006.8 1004.9
20 22.08 Ю 2 1300 м сильн. дождь н/о +25.1 +24.8 98 +35 +35 очень
душно
1006.9 1005.0
21 22.08 ЮЗ 1 15 км слаб. дождь н/о +25.3 +25.0 98 +36 +36 очень
душно
1007.1 1005.2
22 22.08 В 1 16 км слаб. дождь н/о +25.5 +25.0 97 +36 +36 очень
душно
1007.8 1005.9
23 22.08 ЮЗ 1 20 км слаб. дождь н/о +25.7 +25.2 97 +37 +37 очень
душно
1007.8 1005.9
00 23.08 ЮВ 1 12 км слаб. дождь н/о +26.3 +25.6 96 +39 +39 очень
душно
1008.3 1006.4 +25.1 16
01 23.08 ЮВ 2 16 км в посл. час дождь н/о +26.9 +24.9 89 +39 +39 очень
душно
1008.7 1006.8
02 23.08 ЮВ 1 11 км слаб. дождь н/о +26.0 +25.3 96 +38 +38 очень
душно
1008.9 1007.0
03 23.08 В 2 5000 м слаб. дождь н/о +25.2 +24.9 98 +36 +36 очень
душно
1008.5 1006.5
04 23.08 ЮВ 1 20 км слаб. дождь н/о +26.4 +24.8 91 +38 +38 очень
душно
1007.7 1005.8
05 23.08 В 1 20 км в посл. час дождь н/о +26.5 +24.7 90 +38 +38 очень
душно
1008.0 1006.1
06 23.08 В 2 20 км слаб. дождь н/о +26.5 +24.7 90 +38 +38 очень
душно
1007.9 1006.0 31
07 23.08 В 2 20 км в посл. час дождь н/о +26.8 +25.2 91 +39 +39 очень
душно
1008.0 1006.1
08 23.08 В 4 20 км н/о +26.3 +24.3 89 +37 +37 очень
душно
1008.3 1006.4
11 23.08 СВ 1 17 км в посл. час дождь н/о +25.5 +24.1 92 +35 +35 очень
душно
1009.7 1007.7
12 23.08 СВ 2 16 км {дождь} н/о +25.6 +23.8 90 +35 +35 очень
душно
1009.9 1007.9 +27.2 31
13 23.08 З 2 11 км слаб. дождь н/о +25.3 +24.6 96 +36 +36 очень
душно
1010.0 1008.0
14 23.08 ЮЗ 2 10 км в посл. час дождь н/о +25.1 +24.4 96 +35 +35 очень
душно
1010.1 1008.1
15 23.08 С 1 8000 м слаб. дождь н/о +24.8 +24.5 98 +35 +35 очень
душно
1009.9 1007.9
16 23.08 С 1 8000 м слаб. дождь н/о +24.5 +24.0 97 +34 +34 очень
душно
1009.6 1007.6
17 23.08 С 2 7000 м слаб. дождь н/о +24.5 +24.2 98 +34 +34 очень
душно
1009.5 1007.5

 

Местоположение метеостанции Овасе (Япония): широта 34.07 долгота 136.20 высота над уровнем моря 27 м.

В архиве по умолчанию представлена погода в Овасе за последнюю неделю. Архивные данные за месяц целиком и за предыдущие месяцы, начиная с января 2011 года, Вы можете получить, выбрав интересующий диапазон дат из раскрывающегося списка и нажав кнопку "Ввод!".


*Определитесь, кто Вы:
робот инопланетянин человек

Внимание! Время в таблицах - всемирное. Для получения местного времени необходимо прибавить поправку, которая равна 9 ч.

Смотрите также архив погоды в соседних городах и на ближайших метеорологических станциях:

Погода в Наре (Япония) (78 км)
Погода в Уэно (Япония) (78 км)
Погода в Цу (Япония) (79 км)
Погода в Сиономисаки (Япония) (80 км)
Погода в Осаке (Япония) (93 км)
Погода в Вакаяме (Япония) (97 км)
Погода в Йоккаити (Япония) (102 км)
Погода в Ирако (Япония) (103 км)
Погода в Киото (Япония) (114 км)
Погода в Кобе (Япония) (115 км)

Пояснения к столбцам:

Ветер - указаны скорость ветра в м/с - средняя за 10 мин, порывы в срок и между сроками (в фигурных скобках) и направление, откуда дует ветер: С - северный, СВ - северо-восточный, В - восточный, ЮВ - юго-восточный, Ю - южный, ЮЗ - юго-западный, З - западный, СЗ - северо-западный.
Видимость - горизонтальная дальность видимости в метрах или километрах. При видимости от 1 до 10 км при отсутствии осадков обычно наблюдается дымка, при ухудшении видимости до 1 км и менее - туман. В сухую погоду видимость может ухудшаться дымом, пылью или мглою.
Явления - указаны атмосферные явления, наблюдавшиеся в срок или в последний час перед сроком; фигурными скобками обозначены явления, наблюдавшиеся между сроками (за 1-3 часа до срока); квадратными скобками обозначены град или гололедные отложения с указанием их диаметра в мм.
Облачность - указаны через наклонную черту общая и нижняя облачность в баллах и высота нижней границы облаков в метрах; квадратными скобками обозначены формы облаков: Ci - перистые, Cs - перисто-слоистые, Cc - перисто-кучевые, Ac - высококучевые, As - высокослоистые, Sc - слоисто-кучевые, Ns - слоисто-дождевые, Cu - кучевые, Cb - кучево-дождевые. Подробнее классификацию облаков см. в Атласе облаков (PDF).
T - Температура воздуха - температура, измеренная на высоте 2 м над землей.
Td - Температура точки росы - температура, при понижении до которой содержащийся в воздухе водяной пар достигнет насыщения.
f - Относительная влажность воздуха - влажноcть воздуха, измеренная на высоте 2 м над землей.
Te - Эффективная температура - температура, которую ощущает одетый по сезону человек в тени. Характеристика душности погоды. При расчете учитывается влияние влажности воздуха и скорости ветра на теплоощущения человека.
Tes - Эффективная температура на солнце - температура, которую ощущает человек, с поправкой на солнечный нагрев. Характеристика знойности погоды. Зависит от высоты солнца над горизонтом, облачности и скорости ветра. Ночью, в пасмурную погоду, а также при ветре 12 м/с и более поправка равна нулю.
P - Атмосферное давление - приведенное к уровню моря атмосферное давление.
Po - Атмосферное давление - измеренное на уровне метеостанции атмосферное давление.
Tmin - Минимальная температура - минимум температуры воздуха на высоте 2 м над землей.
Tmax - Максимальная температура - максимум температуры воздуха на высоте 2 м над землей.
R - Количество осадков - Количество выпавших осадков за период времени, мм. При наведении курсора мыши на число - период времени, за который выпало указанное количество осадков.
R24 - Количество осадков - Количество выпавших осадков за 24 часа, мм.
S - Снежный покров - Высота снежного покрова, см. При наведении курсора мыши на число - состояние снежного покрова и степень покрытия местности в баллах.